Theta_e
278 278 278 277 278 278 278 277 274 271 272 273 274 276 276 276 277 277 276 279 283 284 286 287 288 288 289 289 290 291 292 292 292 292 293 293 294 294
278 278 277 277 277 277 277 276 276 273 271 273 274 274 275 276 277 277 276 280 280 282 284 285 287 287 287 288 288 289 289 290 290 291 291 291 292 292
277 277 277 277 275 275 275 275 274 274 271 272 273 273 273 273 275 275 276 276 276 280 282 284 285 285 285 286 286 286 287 287 288 289 289 289 290 291
277 277 275 276 274 273 273 273 273 273 272 270 272 272 272 273 274 274 276 277 276 279 282 283 283 283 283 284 284 284 284 284 285 286 287 288 289 290
277 276 275 275 273 273 272 272 272 274 272 271 270 272 272 274 274 275 275 274 276 279 280 280 280 281 281 282 282 282 282 282 283 284 286 287 288 288
276 276 275 275 274 273 273 272 272 271 271 271 270 271 272 274 274 273 272 274 274 276 277 277 278 278 279 280 280 279 280 281 283 283 283 284 285 286
276 276 275 275 278 276 274 273 272 271 271 270 270 270 271 272 272 273 272 272 273 274 272 273 273 273 273 276 276 278 280 281 282 283 284 285 284 285
275 275 275 276 278 281 281 280 276 271 264 265 271 271 272 273 272 272 271 271 269 273 271 270 272 271 272 273 277 279 280 280 281 282 282 282 283 284
276 276 275 276 275 275 279 282 282 283 281 274 273 273 273 273 273 272 272 271 270 272 270 267 271 269 272 273 276 278 279 280 280 280 280 281 281 282
276 276 275 275 275 274 273 273 274 274 276 276 275 275 274 275 275 275 273 267 269 270 270 265 269 268 271 271 276 277 278 278 278 278 279 280 280 281
276 276 275 275 277 280 275 272 273 274 277 280 281 281 282 283 282 271 260 257 264 267 269 266 268 267 268 269 271 275 276 276 276 278 278 279 280 280
277 276 278 277 279 280 277 274 272 273 272 271 274 276 278 274 277 274 269 260 263 261 268 265 266 267 263 268 269 269 270 273 275 275 276 277 278 276
277 276 276 280 282 282 282 277 274 275 273 275 272 271 270 270 270 270 270 268 265 264 268 268 266 265 263 263 266 268 268 270 269 271 274 275 277 277
276 276 276 279 281 282 281 282 282 281 279 270 267 268 268 268 269 269 269 269 269 268 268 268 265 264 262 262 262 266 267 268 269 269 270 273 275 276
278 278 279 280 281 281 282 282 280 279 275 269 267 268 269 270 269 268 268 267 267 267 267 267 266 265 264 262 262 263 265 266 267 268 268 269 271 272
280 274 278 280 280 279 274 275 274 274 273 271 271 270 268 266 266 266 264 262 259 260 264 266 266 266 263 263 263 262 264 263 266 267 269 270 270 272
265 260 262 264 266 267 268 270 271 271 270 269 269 268 266 265 265 264 263 260 256 257 259 262 265 265 264 263 260 262 263 264 267 267 267 266 269 272
262 259 261 264 267 267 266 265 264 264 264 264 264 264 264 264 263 262 261 257 254 256 258 260 260 259 258 259 267 263 264 264 266 266 267 267 267 270
263 258 258 260 260 262 262 261 261 262 261 261 263 264 264 262 261 260 259 257 254 258 258 260 257 256 255 255 260 268 264 264 265 265 267 267 266 268
256 258 258 254 254 254 254 255 256 256 257 258 260 258 257 258 257 257 257 254 256 257 256 258 256 257 258 256 258 261 268 264 264 264 265 267 270 274
249 249 248 248 249 249 249 249 249 251 252 250 250 252 254 254 252 254 256 257 258 257 255 257 259 262 261 257 253 256 262 268 268 265 267 267 265 266
246 247 246 244 245 245 245 246 247 246 246 246 247 248 250 251 252 251 255 256 256 257 257 258 258 259 256 256 256 257 259 262 266 269 270 270 267 264
246 245 244 243 243 243 244 244 244 247 245 246 246 247 248 247 248 255 255 256 256 256 255 254 255 256 255 256 257 258 257 259 261 261 263 269 270 270
Wind_Speed
6 6 6 4 4 4 3 3 4 3 3 3 2 1 2 3 6 5 7 13 19 20 21 23 23 26 27 29 30 31 33 34 33 32 35 34 34 32
4 7 5 3 4 4 3 3 2 3 3 4 3 3 2 4 6 7 8 14 15 18 22 23 26 26 27 28 30 32 34 35 35 34 33 33 32 32
5 6 6 5 4 4 3 3 3 3 3 3 3 2 3 4 5 6 7 6 5 18 21 23 25 25 27 29 31 33 32 32 33 33 31 33 31 31
7 6 6 4 5 4 3 4 4 4 3 4 3 3 5 4 6 6 6 6 6 14 21 24 23 24 28 30 30 31 31 31 31 32 31 30 31 31
8 7 7 7 5 4 4 4 3 4 4 3 3 2 3 3 5 5 5 5 6 16 20 19 20 26 29 29 28 30 30 30 31 31 32 31 30 31
6 6 7 8 7 7 6 6 5 4 3 4 3 3 4 3 3 6 10 5 10 9 13 13 21 25 25 26 27 29 29 32 34 33 32 31 31 31
5 6 6 7 12 9 5 5 5 4 4 4 3 3 4 3 3 2 7 10 8 5 7 10 12 11 11 19 21 28 33 33 32 29 28 29 28 28
7 6 5 7 10 14 15 15 10 6 5 4 4 6 7 4 3 4 6 7 7 3 11 17 10 11 10 10 26 32 32 31 30 30 31 32 31 29
6 6 6 5 7 6 13 16 17 19 16 6 8 8 8 4 4 6 6 6 9 8 9 14 9 11 9 12 28 30 28 28 32 31 29 29 28 27
7 8 7 7 8 8 6 7 9 8 9 7 7 7 6 6 8 5 2 5 8 6 5 10 8 10 11 12 26 25 25 31 29 29 28 30 30 28
7 8 8 7 12 16 8 9 9 11 11 18 19 20 21 21 12 2 2 3 9 6 3 7 6 12 11 13 7 20 30 27 28 29 31 28 27 25
6 7 14 11 15 17 10 7 11 10 5 5 7 11 13 3 6 3 2 4 4 6 1 6 9 8 8 5 8 11 10 22 27 31 27 25 26 11
7 6 6 16 19 19 18 9 12 9 10 10 7 6 3 3 4 4 7 6 5 7 6 7 7 9 6 11 8 10 12 13 14 15 22 24 26 21
8 6 6 14 17 18 15 17 20 17 8 3 2 4 5 5 5 6 8 7 6 9 9 9 7 9 9 12 14 9 13 12 11 10 11 19 23 24
7 9 12 14 16 15 17 17 14 7 3 2 5 5 6 5 5 4 5 4 7 8 8 10 9 10 8 11 13 15 14 10 11 9 11 11 12 12
11 3 4 7 7 6 1 3 2 2 3 4 5 4 1 3 4 4 3 2 2 5 7 9 9 9 9 10 11 15 10 8 10 12 12 12 11 10
2 2 2 0 1 1 1 1 1 2 5 5 6 6 4 4 4 3 3 1 3 4 6 6 7 9 9 13 11 9 10 11 10 10 13 12 10 10
3 2 0 1 2 2 2 2 2 2 3 2 3 3 6 6 4 2 2 2 2 3 6 6 6 7 3 6 13 11 8 10 11 11 11 11 11 11
3 2 3 2 1 0 1 1 2 2 3 2 5 6 5 3 3 2 2 2 2 5 6 6 4 3 6 7 5 11 10 12 12 10 9 9 11 12
3 2 2 3 2 2 2 2 3 2 2 2 3 3 2 2 1 3 2 2 3 4 6 5 3 4 5 5 8 12 19 11 9 11 11 9 9 19
2 2 2 3 3 3 2 3 2 2 2 2 3 2 2 2 2 2 4 6 6 4 6 7 6 11 8 5 4 6 8 19 15 10 9 8 6 3
3 3 3 3 3 3 2 2 2 2 2 2 3 3 3 2 2 3 3 4 4 5 6 6 8 6 3 2 7 8 9 10 15 15 14 15 6 6
3 4 3 3 2 2 2 3 3 3 3 3 3 3 3 2 3 4 4 4 4 5 4 5 3 3 2 3 6 7 7 9 6 8 7 21 17 15
Wind_Direction
127 118 110 109 95 93 99 111 140 184 271 292 286 195 307 359 322 321 312 318 337 336 332 327 328 330 329 327 325 322 319 317 314 311 309 308 308 307
129 119 104 103 107 105 117 122 118 153 220 211 247 243 268 309 307 314 292 317 319 323 323 325 328 329 329 324 324 321 320 317 314 311 309 306 306 305
129 128 125 134 129 132 120 118 150 168 195 291 244 258 275 253 288 270 286 283 292 315 317 325 327 331 328 326 323 319 316 315 314 312 308 308 310 304
150 140 146 142 147 143 153 178 191 196 177 238 265 254 230 244 262 281 288 303 306 303 318 324 326 327 326 324 321 319 318 319 315 309 310 305 302 305
162 163 160 154 158 165 184 202 202 209 195 218 263 251 273 261 303 286 298 296 293 315 319 321 322 324 323 322 319 319 321 316 311 311 308 308 309 306
168 168 167 171 174 183 191 203 202 209 208 227 245 267 248 268 277 317 319 313 324 320 320 325 317 319 321 319 318 319 317 314 316 312 309 306 302 299
179 183 178 179 199 196 184 202 200 205 207 220 249 249 267 274 279 289 300 314 318 301 327 312 314 316 315 317 313 314 318 317 315 313 311 316 317 313
191 194 189 198 213 219 224 224 210 198 214 191 240 253 271 258 234 279 297 310 318 73 338 306 318 307 310 305 311 315 315 316 317 324 322 317 312 315
192 186 201 206 201 212 239 243 242 243 230 200 236 240 261 216 254 278 277 277 284 306 316 291 314 299 305 305 310 311 313 316 325 319 317 315 311 312
201 199 203 199 207 204 216 236 245 245 251 258 256 265 239 248 239 258 279 289 292 294 280 280 313 297 306 301 304 305 312 322 319 320 317 319 316 311
212 209 206 213 222 232 217 228 246 248 249 254 256 255 256 256 248 82 328 40 302 307 288 272 299 310 304 297 289 310 315 315 317 318 321 313 314 315
219 219 213 221 235 237 239 231 253 260 234 251 252 266 273 261 251 253 255 223 253 309 151 318 309 327 312 287 309 302 306 310 318 319 319 320 321 314
226 222 219 233 244 245 243 227 234 258 256 256 238 228 207 225 228 236 241 235 238 247 277 298 302 307 273 305 303 305 301 314 312 313 314 319 320 320
224 226 214 227 243 253 260 262 268 272 265 227 203 223 220 225 219 219 226 233 244 263 287 282 274 287 288 294 296 302 310 304 308 308 308 318 315 317
221 224 219 233 246 258 264 272 278 273 252 216 233 239 222 223 201 207 221 246 262 263 272 276 271 279 277 282 289 297 310 309 306 303 313 312 313 315
259 276 246 257 257 267 356 309 347 293 256 257 262 268 167 192 211 199 225 206 251 272 257 268 277 282 282 276 282 288 296 295 306 305 307 311 310 303
124 51 34 20 268 285 302 334 316 294 285 273 279 277 254 239 244 204 227 211 209 284 295 289 288 283 275 275 285 274 289 291 296 312 315 307 309 310
98 147 144 122 89 42 13 323 313 270 257 276 274 260 274 275 256 211 230 207 223 272 285 297 311 322 310 289 253 282 296 299 311 308 304 305 311 315
91 76 105 108 120 27 311 306 296 312 321 283 292 294 286 248 243 251 257 238 255 276 278 294 303 297 309 304 275 283 313 305 308 310 304 311 304 301
88 141 161 164 181 202 245 258 278 296 297 292 301 285 268 255 257 272 262 231 263 276 287 291 268 266 301 293 309 297 305 302 310 310 312 303 286 298
129 135 174 184 194 199 238 259 249 261 276 301 279 267 254 202 252 257 268 271 274 271 282 288 293 304 291 309 329 298 302 318 326 311 306 315 320 300
164 181 200 203 209 212 262 273 299 298 290 264 258 250 245 208 236 225 249 264 257 266 276 292 303 303 298 252 301 303 305 316 330 337 349 355 330 335
199 205 218 230 230 242 241 244 228 258 247 251 250 253 230 231 224 249 268 263 266 276 283 301 297 297 257 267 291 308 301 317 325 332 335 357 360 357